This is the latest recevied weather packets stored in our database for station/object W7TRD. If no packets are shown the sender has not sent any weather packets the latest 10 day(s).
| Time | Temp. | Humidity | Pressure | Rain* | Wind** | Luminosity | Snow |
|---|---|---|---|---|---|---|---|
| 1777780677 | 18.33° C | 73% | 1013.7 hPa | 0 mm | - | 0 W/m² | - |
| 1777780375 | 18.33° C | 72% | 1013.5 hPa | 0 mm | - | 0 W/m² | - |
| 1777780072 | 18.89° C | 72% | 1013.5 hPa | 0 mm | - | 0 W/m² | - |
| 1777779769 | 18.89° C | 72% | 1013.6 hPa | 0 mm | - | 0 W/m² | - |
| 1777779467 | 18.89° C | 72% | 1013.5 hPa | 0 mm | - | 0 W/m² | - |
| 1777779164 | 18.89° C | 72% | 1013.5 hPa | 0 mm | - | 1 W/m² | - |
| 1777778862 | 18.89° C | 71% | 1013.2 hPa | 0 mm | - | 1 W/m² | - |
| 1777778561 | 18.89° C | 71% | 1013.3 hPa | 0 mm | - | 3 W/m² | - |
| 1777778257 | 19.44° C | 70% | 1013.1 hPa | 0 mm | - | 5 W/m² | - |
| 1777777955 | 19.44° C | 70% | 1013.1 hPa | 0 mm | - | 8 W/m² | - |
| 1777777651 | 19.44° C | 69% | 1013 hPa | 0 mm | - | 12 W/m² | - |
| 1777777348 | 20° C | 68% | 1012.9 hPa | 0 mm | - | 15 W/m² | - |
| 1777777045 | 20° C | 68% | 1012.9 hPa | 0 mm | - | 19 W/m² | - |
| 1777776742 | 20.56° C | 66% | 1013 hPa | 0 mm | - | 24 W/m² | - |
| 1777776439 | 21.11° C | 64% | 1012.7 hPa | 0 mm | - | 29 W/m² | - |
| 1777776136 | 21.67° C | 63% | 1012.7 hPa | 0 mm | - | 34 W/m² | - |
| 1777775833 | 21.67° C | 63% | 1012.8 hPa | 0 mm | - | 37 W/m² | - |
| 1777775530 | 22.78° C | 61% | 1012.5 hPa | 0 mm | - | 41 W/m² | - |
| 1777775226 | 22.78° C | 60% | 1012.8 hPa | 0 mm | - | 46 W/m² | - |
| 1777774925 | 23.33° C | 59% | 1012.5 hPa | 0 mm | - | 52 W/m² | - |
| 1777774623 | 24.44° C | 57% | 1012.2 hPa | 0 mm | - | 64 W/m² | - |
| 1777774319 | 25.56° C | 55% | 1012.1 hPa | 0 mm | - | 78 W/m² | - |
| 1777774016 | 25.56° C | 52% | 1012 hPa | 0 mm | - | 91 W/m² | - |
| 1777773714 | 25.56° C | 53% | 1011.9 hPa | 0 mm | - | 100 W/m² | - |
| 1777773410 | 25.56° C | 53% | 1012 hPa | 0 mm | - | 112 W/m² | - |
* Rain latest hour (hover to see other rain measurements)
** Current wind speed in m/s (hover to see current wind gust speed)